Weather History for Marshfield, WI

Change the Weather History Date:

Thursday, May 2, 2013

  Actual Average Record
Temperature  
Mean Temperature 34 °F -  
Max Temperature 37 °F 63 °F 92 °F (1959)
Min Temperature 30 °F 37 °F 26 °F (1916)
Degree Days  
Heating Degree Days 32    
Moisture  
Dew Point 30 °F    
Average Humidity 85    
Maximum Humidity 93    
Minimum Humidity 78    
Precipitation  
Precipitation 0.19 in - - ()
Sea Level Pressure  
Sea Level Pressure 30.37 in    
Wind  
Wind Speed 13 mph (North)    
Max Wind Speed 18 mph    
Max Gust Speed 28 mph    
Visibility 8 miles    
Events Rain , Snow    
Averages and records for this station are not official NWS values.
T = Trace of Precipitation, MM = Missing Value Source: NWS Daily Summary

Daily Weather History Graph

Daily Weather History Graph

Search for Another Location

Airport:

Trip Planner

Search our weather history database for the weather conditions in past years. The results will help you decide how hot, cold, wet, or windy it might be!

Date:

Astronomy

May. 02, 2013 Rise Set
Actual Time 5:49 AM CDT 8:07 PM CDT
Civil Twilight 5:16 AM CDT 8:39 PM CDT
Nautical Twilight 4:36 AM CDT 9:19 PM CDT
Astronomical Twilight 3:52 AM CDT 10:04 PM CDT
Moon 1:54 AM CDT (5/2) 12:39 PM CDT (5/2)
Length of Visible Light 15h 22m
Length of Day
14h 17m
Waning Gibbous, 47% of the Moon is Illuminated
May 2
Waning Gibbous
May 9
New
May 17
First Quarter
May 24
Full
May 31
Last Quarter

Hourly Weather History & Observations

Time (CDT) Temp. Windchill Dew Point Humidity Pressure Visibility Wind Dir Wind Speed Gust Speed Precip Events Conditions
12:54 AM 37.0 °F 28.5 °F 30.9 °F 79% 30.37 in 10.0 mi NNE 13.8 mph 23.0 mph N/A   Overcast
1:54 AM 37.0 °F 29.3 °F 30.9 °F 79% 30.38 in 10.0 mi North 11.5 mph 21.9 mph N/A   Overcast
2:54 AM 37.0 °F 28.5 °F 30.9 °F 79% 30.36 in 10.0 mi North 13.8 mph 20.7 mph N/A   Overcast
3:54 AM 37.0 °F 28.9 °F 30.9 °F 79% 30.36 in 10.0 mi North 12.7 mph 20.7 mph N/A   Overcast
4:54 AM 37.0 °F 28.5 °F 30.9 °F 79% 30.35 in 10.0 mi North 13.8 mph 23.0 mph N/A   Overcast
5:54 AM 36.0 °F 27.1 °F 30.9 °F 82% 30.38 in 10.0 mi North 13.8 mph 18.4 mph N/A   Overcast
6:54 AM 36.0 °F 28.0 °F 30.0 °F 79% 30.39 in 10.0 mi North 11.5 mph - N/A   Overcast
7:54 AM 35.1 °F 25.9 °F 30.9 °F 85% 30.38 in 10.0 mi North 13.8 mph 23.0 mph 0.01 in   Overcast
8:01 AM 35.6 °F 26.6 °F 30.2 °F 81% 30.34 in 10.0 mi North 13.8 mph 23.0 mph 0.00 in   Overcast
8:54 AM 35.1 °F 25.9 °F 30.9 °F 85% 30.42 in 10.0 mi North 13.8 mph 20.7 mph 0.00 in   Overcast
9:23 AM 35.6 °F 27.1 °F 32.0 °F 87% 30.36 in 2.5 mi North 12.7 mph - 0.00 in Snow Light Snow
9:36 AM 33.8 °F 23.5 °F 32.0 °F 93% 30.32 in 3.0 mi NNE 16.1 mph - 0.00 in   Overcast
9:54 AM 34.0 °F 24.6 °F 32.0 °F 92% 30.41 in 4.0 mi North 13.8 mph 23.0 mph 0.04 in Rain Heavy Rain
10:21 AM 33.8 °F 23.9 °F 32.0 °F 93% 30.35 in 2.5 mi NNE 15.0 mph 20.7 mph 0.05 in Rain Rain
10:33 AM 35.6 °F 28.6 °F 33.8 °F 93% 30.37 in 3.0 mi NNE 9.2 mph 20.7 mph 0.07 in Rain Light Rain
10:52 AM 35.6 °F 28.6 °F 33.8 °F 93% 30.36 in 7.0 mi North 9.2 mph - 0.07 in Rain Light Rain
10:54 AM 35.1 °F 29.3 °F 33.1 °F 92% 30.42 in 7.0 mi North 6.9 mph - 0.07 in Rain Light Rain
11:54 AM 36.0 °F 26.0 °F 33.1 °F 89% 30.40 in 10.0 mi NNE 17.3 mph 23.0 mph 0.00 in   Overcast
12:54 PM 36.0 °F 27.1 °F 32.0 °F 86% 30.40 in 10.0 mi NNE 13.8 mph 24.2 mph N/A   Overcast
1:54 PM 36.0 °F 26.7 °F 30.0 °F 79% 30.40 in 10.0 mi North 15.0 mph 21.9 mph N/A   Overcast
2:04 PM 35.6 °F 25.2 °F 30.2 °F 81% 30.33 in 10.0 mi North 18.4 mph 23.0 mph N/A   Overcast
2:54 PM 35.1 °F 26.4 °F 28.9 °F 78% 30.40 in 10.0 mi North 12.7 mph 27.6 mph N/A   Overcast
3:54 PM 34.0 °F 25.0 °F 30.0 °F 85% 30.40 in 10.0 mi North 12.7 mph 24.2 mph 0.01 in   Overcast
4:54 PM 34.0 °F 25.5 °F 28.9 °F 82% 30.39 in 10.0 mi NNE 11.5 mph 20.7 mph N/A   Overcast
5:54 PM 33.1 °F 23.4 °F 28.9 °F 85% 30.39 in 10.0 mi North 13.8 mph 20.7 mph 0.03 in   Overcast
6:07 PM 32.0 °F 23.6 °F 28.4 °F 87% 30.34 in 10.0 mi North 10.4 mph 19.6 mph 0.00 in   Overcast
6:27 PM 32.0 °F 21.2 °F 28.4 °F 87% 30.33 in 7.0 mi North 16.1 mph 26.5 mph 0.01 in Snow Light Snow
6:40 PM 32.0 °F 22.5 °F 28.4 °F 87% 30.33 in 3.0 mi North 12.7 mph 23.0 mph 0.03 in   Overcast
6:54 PM 32.0 °F 21.2 °F 28.0 °F 85% 30.37 in 8.0 mi North 16.1 mph 21.9 mph 0.03 in   Overcast
7:32 PM 32.0 °F 22.5 °F 28.4 °F 87% 30.33 in 8.0 mi North 12.7 mph 19.6 mph 0.00 in   Overcast
7:54 PM 32.0 °F 21.6 °F 28.0 °F 85% 30.38 in 9.0 mi NNE 15.0 mph 25.3 mph 0.00 in   Overcast
8:54 PM 30.9 °F 22.8 °F 28.0 °F 89% 30.38 in 10.0 mi North 9.2 mph - N/A   Overcast
9:54 PM 30.9 °F 21.2 °F 27.0 °F 85% 30.38 in 10.0 mi North 12.7 mph - 0.00 in   Overcast
10:54 PM 30.9 °F 21.7 °F 27.0 °F 85% 30.36 in 10.0 mi North 11.5 mph - N/A   Overcast
11:54 PM 30.9 °F 22.2 °F 27.0 °F 85% 30.34 in 10.0 mi North 10.4 mph - 0.00 in   Overcast